Cloud_Cover
6 12 7 99 12 4 0 0 5 5 91 70 6 100 66 5 10 2 2 3 0 0 0 0 0 0 0 0 0 0 0 1 0 0 0 0 0 0 0 0 0 0 0 0 0 0 0 0 0
5 70 34 100 38 30 0 0 0 33 99 7 5 89 99 5 88 25 0 0 0 0 0 0 0 0 0 0 0 0 0 0 0 0 1 1 0 0 0 0 0 0 0 0 0 0 0 0 0
49 65 90 93 100 56 1 0 5 5 5 3 74 25 59 77 6 5 0 0 0 0 0 0 0 0 0 0 0 0 0 0 0 5 0 0 0 0 0 0 0 0 0 0 0 0 0 0 0
76 71 95 25 100 25 2 0 5 56 5 1 80 96 7 100 57 5 0 0 0 0 0 2 0 0 0 0 0 0 0 0 2 5 5 0 0 0 0 0 0 0 0 0 0 0 0 0 0
5 9 93 100 100 63 1 4 0 10 5 1 74 96 5 93 35 5 0 0 0 0 0 0 0 0 0 0 0 4 0 0 0 0 0 5 1 0 0 0 0 0 0 0 0 0 0 0 0
12 5 78 100 100 42 1 0 4 82 33 5 5 19 5 62 76 21 5 5 0 0 0 0 5 0 0 0 0 5 5 4 5 0 4 98 31 1 4 0 0 0 0 0 0 0 0 0 0
6 11 17 100 100 8 4 0 4 10 100 97 30 5 18 8 83 62 5 6 0 0 0 0 0 0 0 0 0 0 8 85 4 5 5 12 42 1 5 3 0 5 0 0 0 2 5 1 0
94 19 96 94 100 99 3 0 0 1 5 13 100 98 37 89 9 46 79 6 5 6 4 0 0 0 0 0 4 0 0 0 0 5 5 48 27 5 5 5 5 5 3 0 0 0 2 5 1
100 100 100 100 100 100 11 0 0 4 5 5 58 100 38 93 100 47 14 59 66 98 68 5 0 0 0 0 2 0 0 0 1 34 5 37 5 5 5 1 3 5 5 5 0 0 0 5 4
99 100 100 100 100 100 43 0 0 0 1 5 6 6 50 56 82 79 5 11 9 14 60 6 0 0 2 0 0 0 0 0 4 44 51 9 5 5 5 5 5 5 22 5 5 0 1 2 5
100 100 100 100 100 100 93 1 0 0 0 0 4 5 5 96 100 43 50 5 5 5 5 5 7 16 3 0 0 0 0 0 0 0 44 100 90 5 5 5 5 5 63 68 22 5 5 5 5
94 80 100 100 100 100 100 18 0 0 0 0 5 5 5 35 100 100 71 99 39 4 3 5 5 2 13 0 0 0 0 0 0 0 3 2 98 52 11 5 56 59 25 99 94 48 5 23 38
100 100 100 100 100 100 100 72 2 62 2 0 4 5 6 32 20 100 100 12 5 5 0 0 7 31 5 26 0 0 0 0 0 14 8 0 1 88 100 88 75 100 77 99 88 73 12 70 24
100 100 100 100 100 100 100 100 7 98 5 0 0 5 19 96 76 86 100 100 46 5 1 0 1 86 6 48 24 2 0 1 19 46 25 13 0 1 21 95 100 100 91 90 100 100 100 100 90
100 100 100 100 100 100 100 96 19 35 5 5 0 5 27 10 5 21 41 5 43 26 4 0 3 6 37 10 15 8 0 5 62 66 98 27 7 5 0 3 79 100 100 100 100 100 100 100 100
100 60 98 100 100 100 100 17 71 100 52 6 5 5 63 87 84 15 11 5 5 72 11 1 0 0 2 2 2 0 7 63 80 100 100 61 7 5 0 0 5 5 24 99 100 100 100 100 100
96 46 100 100 100 100 90 16 100 100 99 54 3 5 22 100 100 100 92 64 13 67 85 60 7 4 0 0 0 1 33 66 69 90 47 33 19 5 0 4 5 5 2 22 47 95 100 75 98
100 100 42 100 100 100 100 89 100 100 98 23 3 0 11 100 100 100 100 100 100 100 100 100 100 30 5 4 0 0 13 18 18 17 6 20 6 6 0 3 6 5 54 63 48 83 100 100 100
100 100 100 100 100 100 100 100 100 100 100 64 8 0 0 0 9 89 100 100 100 100 100 100 100 100 63 34 5 5 8 3 16 20 9 7 5 4 6 5 7 12 8 77 71 65 86 100 100
89 49 100 100 100 100 86 97 100 100 100 100 72 4 0 0 5 5 72 90 100 100 100 100 100 100 100 100 68 12 6 5 16 5 5 7 6 10 80 6 5 75 18 25 74 98 100 100 100
75 62 100 100 100 100 100 24 100 100 100 100 21 5 5 5 43 46 38 46 100 100 100 100 100 100 100 79 82 100 100 77 69 77 24 51 76 93 78 34 95 95 99 76 100 100 100 100 100
14 100 100 100 100 100 100 38 61 40 100 100 100 100 64 6 96 61 64 100 100 100 100 100 100 100 100 100 100 100 100 100 100 100 100 67 97 86 34 98 76 100 100 100 100 100 100 100 100
34 100 100 100 100 100 18 4 74 38 16 70 100 100 100 100 100 100 100 100 78 12 6 47 84 100 100 100 100 100 100 100 100 100 100 96 99 69 88 100 100 100 100 100 100 100 100 100 100
100 100 100 100 100 56 3 5 0 14 42 100 100 100 100 100 100 100 99 66 77 83 5 5 6 6 15 76 87 100 100 100 100 100 100 100 100 100 100 100 100 100 87 96 95 100 98 100 100
100 100 100 100 100 7 5 4 0 17 23 48 100 100 100 100 100 100 100 100 100 86 19 5 51 34 5 25 46 97 100 98 100 100 100 100 100 100 100 100 100 100 98 100 96 86 100 100 100
100 100 100 100 100 43 94 68 0 98 13 98 100 100 100 100 100 100 100 100 100 100 100 100 58 45 5 61 99 75 93 100 100 100 100 89 100 93 95 92 76 55 99 100 100 100 100 100 100
100 100 100 100 100 100 99 4 5 14 100 100 100 100 100 100 100 100 100 100 100 100 100 84 57 55 26 5 30 86 100 100 100 100 100 100 95 38 69 100 100 100 100 100 100 100 100 100 100
100 100 100 100 100 100 9 4 0 100 100 100 100 100 100 100 100 100 100 100 100 100 100 83 5 67 89 99 93 95 100 100 100 100 100 100 52 57 97 100 100 100 100 100 100 100 100 100 100
100 100 100 100 100 100 100 32 100 100 82 29 1 5 52 100 100 100 100 100 100 100 84 43 12 5 19 89 98 100 100 100 100 100 100 100 95 100 37 54 100 100 100 100 100 100 100 100 100
100 100 100 100 100 100 100 47 100 100 94 5 6 4 5 100 100 100 100 100 100 97 72 100 100 100 94 100 100 100 100 100 100 100 100 100 100 85 49 92 100 100 100 100 100 100 100 100 100